Regional Weather Roundup
Issued by NWS

Home | Current Version | Previous Version | Graphics & Text | Print | Product List | Glossary On
Versions: 1 2 3 4 5 6 7 8 9 10 11 12 13 14 15 16 17 18 19 20 21 22 23 24 25 26 27 28 29 30 31 32 33 34 35 36 37 38 39 40 41 42 43 44 45 46 47 48 49 50
000
ASUS43 KBIS 202010
RWRND

NORTH DAKOTA REGIONAL WEATHER ROUNDUP
NATIONAL WEATHER SERVICE BISMARCK ND
300 PM CDT WED AUG 20 2014

NOTE: "FAIR" INDICATES FEW OR NO CLOUDS BELOW 12,000 FEET WITH NO
SIGNIFICANT WEATHER AND/OR OBSTRUCTIONS TO VISIBILITY.


NDZ001>003-009>011-017-202100-
NORTHWEST NORTH DAKOTA

CITY           SKY/WX    TMP DP  RH WIND       PRES   REMARKS
WILLISTON      RAIN      73  66  78 SW6       29.74R
MINOT          PTSUNNY   84  60  44 SE13      29.71S
MINOT AFB      PTSUNNY   83  68  60 E12G23    29.70F
$$

NDZ018>021-031>035-040>046-202100-
SOUTHWEST NORTH DAKOTA

CITY           SKY/WX    TMP DP  RH WIND       PRES   REMARKS
BISMARCK       CLOUDY    82  68  62 SW8       29.72S
DICKINSON      RAIN      71  67  87 N8        29.72R FOG
GARRISON         N/A     71  66  84 SE5       29.74R
HETTINGER ARPT CLOUDY    81  65  58 SE10      29.72S
$$

NDZ004>008-012>016-024-026-027-054-202100-
NORTHEAST NORTH DAKOTA

CITY           SKY/WX    TMP DP  RH WIND       PRES   REMARKS
GRAND FORKS    PTSUNNY   82  68  62 SE12      29.78R
GRND FRKS AFB  PTSUNNY   83  68  60 SE13      29.79R
DEVILS LAKE    PTSUNNY   82  64  54 S17G24    29.76R
$$

NDZ022-023-025-028>030-036>039-047>053-202100-
SOUTHEAST NORTH DAKOTA

CITY           SKY/WX    TMP DP  RH WIND       PRES   REMARKS
FARGO          CLOUDY    84  67  56 S13G23    29.79R
JAMESTOWN      CLOUDY    82  66  58 S13       29.77R
$$



USA.gov is the U.S. government's official web portal to all federal, state and local government web resources and services.